This is the latest recevied weather packets stored in our database for station/object TA2LKM-11. If no packets are shown the sender has not sent any weather packets the latest 10 day(s).
| Time | Temp. | Humidity | Pressure | Rain* | Wind** | Luminosity | Snow |
|---|---|---|---|---|---|---|---|
| 1788508112 | 30.56° C | 44% | 1013.7 hPa | - | - | - | - |
| 1788507211 | 30.56° C | 44% | 1013.6 hPa | - | - | - | - |
| 1788506310 | 30° C | 44% | 1013.6 hPa | - | - | - | - |
| 1788506219 | 30° C | 43% | 1013.6 hPa | - | - | - | - |
| 1788505318 | 29.44° C | 44% | 1013.3 hPa | - | - | - | - |
| 1788504418 | 31.11° C | 42% | 1013.5 hPa | - | - | - | - |
| 1788503517 | 32.78° C | 38% | 1013.9 hPa | - | - | - | - |
| 1788502616 | 32.78° C | 39% | 1013.8 hPa | - | - | - | - |
| 1788501737 | 32.78° C | 39% | 1013.9 hPa | - | - | - | - |
| 1788500815 | 31.67° C | 42% | 1013.9 hPa | - | - | - | - |
| 1788499914 | 32.22° C | 41% | 1013.9 hPa | - | - | - | - |
| 1788499013 | 30.56° C | 44% | 1013.7 hPa | - | - | - | - |
| 1788498111 | 28.89° C | 47% | 1013.7 hPa | - | - | - | - |
| 1788497211 | 28.33° C | 48% | 1013.7 hPa | - | - | - | - |
| 1788497122 | 28.33° C | 48% | 1013.7 hPa | - | - | - | - |
| 1788496221 | 27.22° C | 50% | 1013.4 hPa | - | - | - | - |
| 1788495320 | 25.56° C | 52% | 1013.2 hPa | - | - | - | - |
| 1788494420 | 24.44° C | 54% | 1012.9 hPa | - | - | - | - |
| 1788493519 | 23.33° C | 53% | 1012.7 hPa | - | - | - | - |
| 1788492618 | 23.33° C | 51% | 1012.6 hPa | - | - | - | - |
| 1788492527 | 23.33° C | 51% | 1012.6 hPa | - | - | - | - |
| 1788491626 | 23.33° C | 49% | 1012.5 hPa | - | - | - | - |
| 1788490723 | 23.33° C | 48% | 1012.4 hPa | - | - | - | - |
| 1788489823 | 23.33° C | 47% | 1012.3 hPa | - | - | - | - |
| 1788488922 | 23.89° C | 47% | 1012.4 hPa | - | - | - | - |
* Rain since midnight (hover to see other rain measurements)
** Current wind speed in m/s (hover to see current wind gust speed)